Wind_Speed
13 16 16 15 16 16 16 15 12 10 10 15 11 5 5 5 3 5 7 10 9 8 7 9 11 12 12 12 13 13 12 12 12 12 11 11 12 13 14 15 15 15 15 16 17 17 17 17 17 17 17 18 18 19 19 19 20 20 20 21 20 20 20 20 20 20 19 20 19 19 19 20 19 19 19 20 19 20 22 22 23 24 25 26 27
12 13 14 14 16 17 17 15 12 10 9 9 7 7 7 3 2 5 9 11 10 8 8 10 11 13 13 13 14 14 13 12 12 12 11 11 11 12 12 13 14 14 15 15 16 16 17 17 17 17 17 18 19 20 21 21 21 21 21 21 21 21 21 21 21 21 21 21 20 19 20 21 21 21 21 21 20 20 21 22 23 24 25 26 26
13 13 13 14 16 18 18 16 14 12 13 13 14 14 12 6 3 7 11 12 10 9 9 10 12 14 14 14 15 14 13 12 12 11 11 10 11 11 12 12 13 14 14 15 15 16 16 16 16 17 17 18 19 20 21 21 21 21 21 22 22 21 21 21 21 22 22 22 21 21 21 21 22 22 22 22 21 21 21 22 23 23 24 24 22
14 14 14 14 16 17 18 17 16 14 15 15 17 18 14 7 6 10 13 13 12 10 10 11 13 14 15 15 16 15 14 12 12 12 11 11 11 11 11 12 12 13 14 14 15 16 16 16 16 16 17 18 19 19 20 21 21 21 21 22 22 22 22 22 21 22 22 22 22 22 21 22 23 23 23 23 22 22 22 22 23 23 22 22 20
14 14 15 15 15 17 18 18 17 15 16 17 17 16 12 9 10 13 15 15 13 12 12 12 14 14 14 14 15 15 14 13 13 12 12 12 12 11 11 11 11 12 13 14 15 16 16 16 16 17 17 18 18 18 19 20 20 21 22 22 22 23 23 22 22 22 22 22 22 22 22 23 23 24 24 24 24 24 23 22 22 22 21 21 20
16 14 14 15 16 17 18 18 17 16 16 17 16 14 11 12 15 17 18 17 15 15 15 15 16 16 15 13 14 15 15 15 14 14 14 13 13 12 11 11 11 11 11 12 13 15 16 17 17 17 17 17 18 18 19 19 20 21 22 22 23 23 23 23 23 22 23 23 23 23 23 23 24 24 25 25 25 24 24 22 22 21 21 21 21
18 14 12 14 17 18 17 16 16 16 17 17 16 15 13 14 17 20 19 18 17 17 17 17 17 18 17 14 13 15 16 16 16 16 15 14 14 13 12 11 10 10 10 10 11 13 14 16 16 16 16 17 17 18 19 19 20 20 21 22 23 23 24 23 23 23 23 23 23 23 23 23 24 24 25 25 25 25 24 23 23 22 22 22 22
20 15 11 12 14 15 15 15 16 16 17 17 16 15 14 15 17 18 18 17 17 17 18 17 17 17 16 13 12 15 17 17 17 17 16 15 14 13 12 11 11 10 10 10 10 11 12 14 15 15 15 16 16 17 18 19 19 20 20 21 22 22 23 23 24 23 23 23 23 23 23 23 23 24 24 25 25 25 25 24 24 23 23 23 23
23 17 12 10 11 13 14 15 17 17 18 18 17 15 15 16 16 16 16 17 18 18 18 17 16 15 14 12 12 14 16 17 18 18 18 16 14 13 12 12 11 11 10 10 10 11 11 12 13 14 15 15 16 16 17 18 19 19 20 20 21 22 22 23 23 23 23 23 23 23 23 23 23 23 24 24 25 25 25 25 24 24 24 24 24
24 16 10 9 10 12 14 15 18 20 21 20 17 15 15 15 15 16 17 18 19 19 18 16 15 14 14 13 13 14 15 16 18 19 19 18 16 14 13 12 11 11 11 11 11 11 11 12 12 13 14 15 16 16 17 18 19 19 20 20 21 21 22 22 23 23 23 23 23 23 23 22 22 23 23 24 24 24 25 25 25 24 25 25 25
26 18 12 11 12 14 14 14 16 17 16 14 14 13 14 15 16 17 17 18 18 18 17 16 16 16 17 17 17 17 16 17 19 19 19 19 17 15 15 14 13 12 12 11 11 11 12 12 12 12 13 14 15 16 17 17 18 19 20 20 21 22 22 22 22 22 23 22 22 22 22 22 21 22 22 23 23 24 24 25 25 24 24 25 25
27 21 16 13 14 15 16 16 16 16 15 15 14 12 12 14 15 16 18 19 18 17 17 17 18 19 20 21 21 21 20 19 19 19 19 19 18 17 17 16 15 14 13 12 12 12 13 13 13 12 12 13 13 14 15 16 17 18 19 20 21 21 22 22 22 22 22 22 22 21 21 21 20 21 22 23 23 23 24 24 24 24 24 24 24
26 23 19 16 16 15 17 19 20 23 24 23 19 15 13 13 14 17 19 21 20 18 18 19 21 22 23 22 22 21 19 17 16 17 19 18 18 18 18 18 17 16 15 14 13 13 14 14 14 13 13 12 12 12 13 14 15 16 17 18 19 20 20 21 21 21 22 22 21 21 21 20 20 20 21 22 23 23 23 23 23 23 23 23 23
25 25 22 20 20 19 19 20 23 25 24 21 17 15 14 14 16 20 20 20 20 20 20 21 23 24 23 22 22 21 18 17 17 17 18 18 18 18 19 19 18 18 17 16 15 15 15 15 15 14 13 12 12 12 12 12 13 14 15 15 16 17 18 19 19 19 20 20 20 20 19 19 19 19 20 21 21 22 22 22 21 21 21 22 22
26 26 24 24 25 23 21 21 22 20 16 15 14 14 14 15 19 22 19 20 21 22 24 24 24 23 21 21 22 21 20 19 18 17 17 18 18 18 18 19 19 18 18 17 17 16 16 16 15 14 13 12 11 11 11 11 11 12 12 13 14 15 16 17 17 18 18 18 18 18 18 17 18 18 18 19 20 20 20 20 19 19 20 20 20
28 27 26 27 27 24 21 21 20 17 13 14 14 13 15 16 20 21 20 23 24 24 24 24 22 20 20 22 24 25 22 19 17 18 17 18 18 18 18 19 19 19 18 17 17 17 17 16 15 14 13 12 11 11 11 11 11 11 11 12 13 14 14 15 16 16 16 17 17 17 17 17 17 17 17 18 18 19 19 18 17 17 18 18 18
29 30 28 27 27 24 22 23 23 19 16 16 14 15 17 18 20 21 22 24 24 21 20 20 18 17 18 22 24 23 21 18 18 18 17 17 18 18 17 18 19 19 19 18 17 17 17 16 16 15 14 13 12 12 11 11 11 11 11 11 12 13 13 14 15 15 15 16 16 16 16 16 16 16 17 17 17 17 18 17 16 16 16 16 16
33 34 30 27 26 24 22 24 25 23 21 20 19 19 20 21 22 23 23 23 21 19 19 19 20 18 18 20 21 19 18 17 17 16 16 17 19 18 17 17 19 19 18 18 18 17 17 16 16 16 15 14 14 12 12 11 12 12 12 12 12 13 13 14 14 15 15 15 15 16 15 15 15 16 16 16 16 16 16 16 16 15 15 15 15
30 30 27 23 23 23 22 23 25 25 24 24 22 21 20 21 22 22 23 23 21 19 18 19 20 20 18 19 20 18 15 13 14 15 17 18 19 18 17 16 17 18 18 18 19 19 18 17 16 16 15 14 13 13 12 12 12 12 12 13 13 14 14 14 15 15 16 16 16 16 16 15 15 15 15 16 16 16 16 16 16 16 15 15 15
25 25 24 23 23 22 23 23 24 24 23 23 22 20 19 19 19 19 21 22 21 19 18 17 18 18 18 17 17 16 13 13 16 18 19 19 19 19 18 16 16 16 17 19 20 20 19 17 16 15 14 12 11 12 13 13 13 13 13 13 14 14 15 15 15 15 16 16 16 17 17 16 16 15 15 15 16 16 17 17 17 16 16 16 16
25 25 25 26 25 24 23 22 22 22 22 22 21 19 18 17 18 19 20 20 20 19 17 16 16 17 17 15 16 17 17 18 18 17 19 20 19 19 18 16 16 15 16 18 20 20 19 17 16 14 13 12 11 11 12 13 14 15 15 15 15 15 16 16 17 16 16 16 16 16 17 17 17 17 17 16 16 17 17 17 18 18 17 18 18
25 26 26 25 24 23 21 20 20 20 21 21 20 19 18 18 19 20 20 20 19 18 16 16 16 18 18 17 17 19 19 18 17 17 18 18 17 18 17 16 17 18 19 21 23 22 19 16 15 14 14 13 12 13 13 14 15 16 17 17 18 18 18 18 18 17 17 16 16 15 16 16 17 18 19 18 18 18 18 18 19 19 19 19 19
23 25 26 25 23 20 18 17 18 20 21 21 21 20 19 20 21 21 21 20 20 19 18 17 18 19 19 18 17 19 20 20 20 18 17 16 16 17 17 18 20 22 24 25 26 24 21 20 19 18 17 17 16 16 16 17 17 17 18 19 19 19 19 19 19 19 19 18 17 17 16 16 17 18 19 19 20 20 20 20 20 20 20 20 20
22 22 22 22 22 19 17 17 18 20 22 23 23 22 21 21 22 22 22 22 21 21 20 19 18 19 19 18 19 21 21 21 20 18 18 18 18 18 19 20 23 23 24 25 25 26 26 25 23 22 21 21 19 18 18 18 18 18 19 20 20 20 20 20 20 20 20 20 19 19 19 19 18 18 19 20 20 21 21 22 22 21 21 21 21
23 22 21 21 21 21 22 22 23 23 25 27 27 26 24 24 24 25 24 23 23 23 22 20 19 20 20 19 18 17 17 18 19 19 19 19 19 19 20 22 23 23 23 23 22 22 24 24 23 23 24 23 22 20 20 20 20 19 19 20 20 20 20 21 22 21 22 22 22 22 22 22 22 21 21 21 21 21 22 22 22 22 22 22 22
25 25 25 24 24 26 26 28 29 29 29 31 31 30 28 27 26 26 25 24 25 25 24 22 22 21 21 21 20 19 20 21 22 22 21 20 20 21 22 23 25 25 25 24 22 20 21 21 21 22 23 24 24 23 21 20 20 19 19 20 20 20 20 21 21 21 22 22 24 25 25 25 24 24 24 24 23 23 23 22 22 22 22 23 23
28 28 28 27 27 27 28 30 32 31 32 34 34 32 30 29 28 26 26 27 28 28 26 25 23 23 23 23 22 22 23 23 22 21 22 22 22 23 24 26 27 27 25 23 22 22 24 25 25 24 23 24 25 24 21 20 19 18 18 20 20 21 21 21 21 21 21 21 21 22 23 24 24 24 25 25 26 26 25 25 25 25 25 25 26
29 29 27 27 28 27 28 30 33 34 33 33 34 33 31 30 28 28 29 30 31 30 28 26 24 24 25 26 24 22 22 23 22 21 22 23 23 24 26 27 29 29 27 24 24 25 27 28 28 28 27 26 26 24 22 22 22 21 21 21 22 22 22 22 23 23 23 23 23 21 21 22 22 23 24 25 26 27 27 27 27 27 27 28 29
28 28 27 26 27 28 29 31 34 36 35 33 32 32 32 31 31 32 32 32 32 31 30 28 28 28 28 28 27 25 23 24 25 24 24 24 25 25 26 28 29 30 29 28 29 30 30 31 30 29 29 29 28 27 26 26 26 26 26 25 26 27 27 28 28 28 28 28 28 27 26 26 27 29 30 30 29 28 28 27 27 28 28 29 30
30 30 30 30 30 31 31 32 34 35 34 32 33 34 34 35 36 35 34 34 33 33 33 34 35 34 33 32 31 28 27 28 29 28 27 27 29 30 30 30 30 30 29 30 31 32 32 31 31 31 32 33 31 30 30 30 30 30 30 29 30 32 33 33 33 33 33 32 33 33 33 34 35 36 36 35 34 33 33 32 32 32 32 32 34
35 34 34 34 34 33 33 34 34 35 34 34 35 37 38 39 39 38 38 39 38 37 38 39 39 39 37 36 34 33 33 32 31 30 30 31 32 33 33 33 32 32 32 32 33 34 33 32 33 34 34 35 34 33 33 33 33 33 33 33 34 34 35 34 35 35 36 36 36 37 38 38 39 39 39 39 38 39 39 39 39 38 38 39 39
40 39 39 39 39 38 37 36 37 37 38 39 39 40 40 41 41 42 43 42 41 41 42 42 42 41 40 38 37 37 36 35 34 34 34 34 34 34 35 35 35 35 35 35 35 36 36 36 37 37 36 35 35 36 36 35 36 36 36 36 36 36 36 36 36 36 36 37 38 39 40 41 41 41 42 42 43 43 44 44 43 43 43 43 43
44 43 43 44 43 42 40 40 39 40 41 42 41 41 41 42 42 43 43 43 44 44 44 44 43 42 41 40 39 39 38 38 38 38 37 37 37 36 36 37 37 37 37 37 37 38 38 38 38 38 38 37 37 37 37 38 38 38 38 38 38 39 39 39 39 40 40 40 41 42 42 42 43 44 45 45 46 47 47 47 46 46 45 45 46
46 46 46 46 45 44 43 42 40 41 42 43 44 43 42 41 41 41 42 44 45 45 45 44 43 42 42 42 41 41 41 41 41 40 40 40 39 39 39 39 39 39 39 39 39 39 39 39 39 40 40 40 39 39 39 39 39 39 40 40 40 41 42 42 42 43 43 43 43 44 44 44 44 45 46 47 48 48 49 50 49 49 48 48 48
46 45 45 45 44 43 43 43 44 44 44 45 46 43 40 39 40 42 43 45 46 45 45 45 45 44 44 44 44 44 43 43 43 42 42 41 41 41 41 41 41 41 41 41 41 40 40 40 41 42 43 43 42 42 42 42 42 42 42 42 42 42 43 43 43 43 43 44 44 44 45 45 45 46 47 48 49 49 50 51 50 50 49 49 49
45 43 43 44 43 42 41 40 41 42 42 42 42 41 41 41 41 41 42 43 45 45 45 46 46 46 46 46 46 46 46 45 45 44 44 43 43 43 43 43 43 42 42 42 42 42 42 42 43 45 46 46 46 45 45 45 44 44 44 43 43 44 44 44 43 43 44 44 44 45 45 46 46 47 47 48 49 49 50 50 50 50 50 50 49
44 43 43 44 43 43 41 38 36 37 39 40 41 41 40 39 38 38 38 39 40 40 39 40 42 43 44 45 46 47 47 48 48 47 46 46 45 45 45 45 44 44 44 44 44 45 45 46 47 47 48 48 48 47 47 46 46 45 44 44 44 44 44 44 44 44 44 44 44 44 45 45 45 46 46 47 48 49 49 50 50 50 50 50 49
45 45 46 47 46 46 46 45 44 44 44 44 43 40 37 34 34 36 36 37 39 40 41 42 43 44 45 46 47 48 50 50 50 50 49 47 46 46 46 47 47 47 47 47 48 48 49 50 50 50 49 48 48 48 47 46 46 45 45 44 44 44 44 44 44 44 44 44 44 44 44 44 45 45 45 46 46 47 48 49 49 50 50 50 50
47 47 48 49 49 49 49 49 50 50 49 48 46 44 42 39 38 38 39 39 40 42 44 46 47 48 49 50 49 49 49 50 50 49 48 47 46 46 47 48 49 50 50 50 50 51 52 52 52 51 50 50 49 48 48 47 46 46 45 44 43 43 43 43 44 44 44 44 44 44 44 45 45 45 46 46 46 47 48 49 49 50 51 52 52
48 48 48 49 49 50 50 50 51 51 52 51 49 48 48 47 46 47 47 44 40 38 39 40 41 43 47 50 50 48 47 47 48 47 45 45 46 48 49 50 50 51 51 51 52 52 53 53 53 52 51 50 50 49 48 47 46 45 45 44 43 42 42 42 42 43 43 43 44 44 44 45 45 46 46 46 47 47 48 48 49 50 51 52 53
47 47 48 49 50 51 52 53 53 53 53 53 52 53 54 55 55 56 54 52 49 46 44 43 44 45 48 51 51 49 47 48 48 48 48 49 52 53 52 51 50 50 50 50 50 50 51 51 50 50 50 50 49 49 48 47 46 45 44 43 41 41 41 41 41 41 41 42 42 43 43 44 44 45 46 46 47 47 48 49 49 50 51 51 52
46 45 45 45 46 48 51 53 54 55 55 55 55 55 56 58 59 59 59 58 57 56 55 55 55 56 56 56 55 54 53 53 53 54 56 58 58 57 55 52 51 50 49 49 48 48 47 47 47 47 48 48 48 48 47 46 45 44 43 42 41 41 40 40 40 40 40 41 41 41 41 41 42 43 44 44 45 46 47 48 48 49 49 50 50
44 43 43 44 45 46 49 51 53 54 55 55 55 55 55 57 58 59 60 60 60 60 60 60 60 60 60 61 61 61 60 60 60 61 62 62 60 58 56 54 52 51 50 49 48 48 47 47 46 46 46 47 47 47 46 46 45 44 43 42 42 41 41 41 41 41 41 41 40 40 40 40 40 40 41 42 43 44 45 46 47 48 48 49 49
47 47 47 47 48 49 50 51 52 52 53 54 55 55 55 55 56 57 58 59 59 60 60 59 58 57 57 57 58 59 60 60 60 61 61 60 59 58 56 55 53 52 51 50 49 48 47 46 46 46 46 47 46 46 46 45 45 44 43 43 43 42 42 42 42 42 41 41 40 40 40 40 40 40 40 40 41 42 43 44 45 46 47 48 48
53 53 53 53 53 53 54 54 55 55 56 56 57 57 57 57 57 57 58 58 58 59 58 58 57 56 55 54 54 55 56 57 58 59 59 59 59 58 57 56 55 54 52 51 50 49 48 47 47 47 47 47 47 46 46 46 45 44 43 43 43 43 43 42 42 42 42 41 41 41 41 41 41 41 40 40 39 40 40 41 42 43 44 44 45
57 57 57 58 58 58 58 58 58 58 59 59 59 59 59 59 59 59 59 59 59 59 59 59 58 57 56 55 54 54 54 55 56 57 58 59 59 58 57 56 55 54 53 52 51 50 49 49 49 49 49 48 47 47 46 45 44 44 43 44 44 43 43 42 42 42 42 42 41 41 41 41 41 40 40 39 39 39 39 39 39 40 41 41 42
57 58 58 59 59 60 60 60 60 60 60 61 61 60 60 60 60 61 61 61 61 61 61 61 60 59 58 57 56 55 55 55 56 57 58 58 58 58 57 56 55 53 52 51 50 49 49 49 49 49 49 48 47 46 45 44 44 43 43 43 43 43 42 42 42 42 42 41 41 41 41 40 39 39 38 38 38 38 38 38 38 38 38 39 39
58 59 60 60 60 61 61 62 62 62 63 63 63 63 63 62 62 62 63 63 63 62 62 62 61 61 59 58 57 56 55 55 56 56 57 57 57 57 56 54 53 52 51 50 49 48 48 48 48 48 48 47 46 45 45 44 43 42 42 42 41 41 41 41 41 41 41 40 40 39 38 37 37 37 37 37 36 36 36 36 36 37 37 37 37
60 60 60 60 60 60 61 61 62 63 64 64 64 64 64 64 63 63 63 63 63 63 62 62 62 61 61 59 58 57 55 54 54 54 54 54 55 55 55 54 53 52 50 49 48 47 46 46 46 46 46 45 45 45 44 43 43 42 41 40 40 40 40 40 40 40 39 38 37 36 35 35 36 36 36 35 35 35 35 35 36 36 36 35 33
59 59 60 60 60 60 60 60 61 61 62 62 62 62 62 62 62 61 61 61 61 61 61 61 60 60 60 59 58 57 55 54 52 51 50 51 52 52 52 52 51 50 49 47 46 45 45 44 44 44 44 44 44 44 43 43 43 42 41 39 40 40 40 39 39 38 37 36 35 34 34 35 35 35 35 35 35 35 35 34 34 33 32 28 26
57 58 58 58 58 59 59 59 59 60 60 60 60 60 60 60 60 59 59 59 59 59 59 59 59 59 58 58 57 56 55 53 51 49 48 49 49 49 50 49 49 48 47 46 45 44 44 43 43 43 43 43 43 43 43 42 42 42 40 39 39 40 40 39 38 36 36 35 35 35 35 35 34 34 34 34 34 33 33 31 30 28 25 22 21
Wind_Direction
299 290 279 274 276 274 274 275 278 270 217 186 179 203 251 239 240 274 277 271 270 271 274 275 272 271 270 269 267 265 261 258 256 255 252 249 247 247 246 245 244 243 242 243 244 245 246 246 246 245 245 245 246 248 248 248 248 248 250 250 251 251 253 256 257 257 254 252 250 249 250 251 249 245 245 246 246 247 250 251 252 254 255 255 257
288 291 283 273 272 273 273 268 261 248 220 218 237 244 248 262 306 282 272 271 270 270 275 279 279 276 272 270 268 265 260 255 254 255 254 254 252 251 249 247 246 244 243 243 244 244 245 246 246 246 246 245 246 247 248 248 248 249 250 251 251 251 251 253 255 256 256 255 253 249 248 249 249 247 244 244 244 245 247 250 252 254 255 255 259
270 281 284 279 277 276 275 268 259 251 247 256 266 265 269 298 323 278 271 271 269 270 274 278 282 280 275 272 269 266 261 256 256 257 257 257 257 257 254 251 249 246 244 243 243 244 245 245 246 246 245 244 244 246 248 249 250 250 251 252 253 253 253 253 254 256 257 257 255 253 251 251 251 249 247 246 245 244 246 250 253 255 256 256 259
270 274 278 280 279 277 277 274 267 263 264 267 269 270 278 298 297 275 270 270 269 270 271 276 280 280 278 275 270 268 265 261 259 259 258 256 256 256 255 253 252 249 247 245 245 246 246 246 246 246 246 245 246 247 249 251 252 253 253 253 254 254 254 254 253 254 255 257 257 257 256 255 254 253 251 250 249 247 246 247 251 253 253 253 255
282 277 276 276 276 274 274 274 273 271 270 272 273 274 280 284 276 268 267 268 269 267 266 268 270 272 278 281 278 273 272 271 269 266 265 262 258 258 256 254 252 251 249 248 248 248 248 247 245 245 245 247 248 248 249 250 251 252 252 252 253 253 254 254 253 253 254 256 257 257 258 257 257 255 254 253 252 251 249 247 248 250 249 248 249
296 288 276 269 266 266 268 270 274 274 269 265 264 266 268 266 264 264 266 269 269 265 262 261 260 262 271 284 290 285 282 281 279 276 272 268 265 262 260 258 255 254 252 250 250 251 252 252 249 246 246 247 248 248 248 248 248 249 250 250 251 251 252 253 253 254 255 255 255 256 257 258 257 256 255 254 253 252 252 250 248 247 247 247 248
297 293 280 271 267 266 267 269 271 269 264 259 258 256 255 258 263 266 270 273 271 268 265 260 259 264 270 281 295 294 290 288 285 280 273 269 267 265 264 264 263 264 262 257 255 254 255 256 255 253 250 249 248 249 249 250 249 249 249 249 249 250 251 252 253 253 254 254 255 256 256 257 257 257 256 255 254 253 252 251 248 247 248 249 249
288 286 278 277 273 264 260 261 261 260 257 256 258 257 252 258 269 274 275 274 272 273 272 268 267 269 273 279 291 293 290 288 286 283 277 271 268 268 267 269 271 273 274 272 267 265 263 262 262 261 258 256 254 253 254 254 254 254 253 253 253 253 253 253 254 254 255 255 255 256 256 256 256 256 257 256 255 254 252 250 248 248 250 251 250
282 278 275 281 270 255 250 251 252 253 250 246 248 253 255 262 272 276 274 274 277 282 284 280 274 270 270 274 282 286 286 287 286 284 282 278 274 273 272 272 274 275 278 277 274 273 272 271 270 269 267 264 261 259 258 258 258 259 259 259 259 259 259 258 258 258 258 258 257 257 257 256 256 256 256 256 256 256 255 252 251 251 252 251 250
277 273 276 285 271 253 248 253 259 257 248 238 234 241 252 260 268 273 274 276 279 283 285 280 271 265 263 267 273 279 283 287 289 287 285 283 281 280 279 277 276 277 277 276 273 271 270 271 272 272 271 269 266 264 262 260 260 260 261 261 262 263 263 264 263 263 262 260 259 258 257 256 255 255 255 256 257 258 259 258 257 255 253 251 250
273 272 274 280 272 254 244 254 268 261 246 238 234 234 246 258 267 273 275 276 277 278 278 271 263 262 266 271 278 282 283 287 291 288 285 284 284 285 286 284 280 277 275 273 270 267 264 263 264 266 269 269 268 267 266 264 263 262 261 262 262 263 263 264 264 263 263 262 260 258 256 255 254 254 254 255 257 258 260 260 260 259 256 253 251
270 271 270 272 267 250 240 245 256 255 250 258 260 248 249 257 262 268 269 269 269 269 271 269 265 265 270 277 283 284 281 283 287 285 282 283 284 287 288 287 284 279 276 274 271 268 264 260 257 257 260 264 267 269 269 268 266 265 264 262 262 262 262 262 262 261 261 260 260 258 256 254 252 251 251 252 254 256 257 259 260 260 259 257 254
267 268 268 265 258 248 243 246 253 256 254 259 267 266 262 262 261 262 262 263 263 263 268 274 276 278 282 286 288 287 280 277 282 283 280 279 280 284 287 287 286 282 279 276 272 270 267 261 255 251 252 255 260 264 268 269 269 268 266 264 263 263 263 262 261 260 260 259 259 257 256 254 251 249 249 250 252 254 255 257 259 260 260 259 258
260 263 262 255 249 243 245 255 261 257 251 251 259 267 267 271 272 265 260 261 263 265 267 271 276 278 281 283 286 289 281 272 280 285 278 274 275 278 282 284 284 283 280 277 274 271 268 263 257 252 250 251 253 257 262 266 270 272 272 271 269 267 266 264 263 262 260 259 258 257 255 254 252 250 248 249 252 255 256 258 259 260 260 260 259
257 260 257 250 244 239 244 261 263 251 250 254 253 260 266 273 277 270 265 267 267 268 266 264 265 265 263 269 281 289 282 272 279 287 281 275 273 273 277 279 280 280 279 277 275 273 269 266 262 258 254 253 254 256 259 263 268 273 276 278 276 274 272 270 268 266 263 261 259 257 255 252 251 249 248 249 251 254 257 258 259 259 260 260 260
255 256 254 248 243 239 241 255 257 250 263 267 251 254 265 270 273 270 273 277 273 272 269 264 267 266 263 273 284 286 277 270 280 290 285 276 271 270 272 274 277 278 277 276 275 274 271 269 267 266 264 263 263 263 262 262 263 267 272 276 278 278 277 275 273 270 268 265 263 260 257 254 251 248 247 247 249 253 257 258 259 259 259 260 260
253 253 250 244 243 244 243 248 254 260 274 275 260 259 265 268 271 273 278 280 275 276 278 275 279 280 276 282 287 283 273 273 285 290 286 278 275 273 272 273 275 275 275 276 275 274 273 270 269 268 268 267 267 268 269 269 267 266 267 269 272 274 275 275 274 273 271 269 266 264 260 258 255 252 250 248 249 251 255 258 258 258 259 260 260
257 255 246 239 243 248 247 247 254 261 269 275 273 271 269 267 269 272 274 274 274 280 283 282 285 287 283 284 287 282 273 276 284 285 283 282 280 277 275 273 273 273 275 277 276 275 274 272 269 267 265 264 263 263 267 271 273 273 272 270 270 271 273 274 274 273 272 270 268 266 263 260 257 255 254 253 252 253 254 256 256 257 258 259 260
255 247 239 242 249 251 250 250 254 261 267 272 273 271 268 266 266 266 265 269 277 282 281 282 286 288 287 285 286 280 271 275 285 286 284 280 277 276 272 266 268 273 277 279 278 276 275 273 268 263 260 259 260 261 263 266 269 271 272 273 273 272 272 273 273 273 272 272 272 271 269 267 263 259 257 255 255 255 255 256 256 255 255 256 257
249 243 244 253 256 254 254 254 258 263 267 269 268 266 264 263 262 261 262 268 276 279 281 284 286 288 289 285 281 275 269 279 287 287 283 277 270 269 267 264 267 271 276 279 278 277 277 275 269 263 258 255 256 259 261 263 265 266 267 269 271 273 272 272 272 272 273 273 274 274 274 274 272 268 263 259 256 254 254 254 255 254 254 253 255
251 252 255 257 256 256 258 258 260 263 265 264 263 261 261 261 262 262 263 267 271 275 277 280 283 287 288 285 280 277 278 283 284 279 278 278 272 268 267 267 268 270 276 281 280 277 276 273 267 263 260 258 257 258 260 262 262 262 262 263 264 267 268 269 269 269 269 271 273 275 276 276 276 274 272 268 263 259 257 255 255 254 254 253 253
254 255 256 256 256 256 255 255 257 260 262 262 260 260 263 266 267 268 268 268 270 273 275 277 281 283 282 282 283 281 279 281 282 279 278 279 275 270 266 264 267 273 283 288 285 279 274 270 269 266 262 261 263 265 267 267 265 261 259 258 258 259 262 265 268 268 267 268 269 271 273 274 275 274 273 272 270 267 264 261 259 258 257 257 256
261 260 258 257 255 251 248 251 255 257 256 255 257 263 268 271 272 272 273 273 274 276 278 280 281 282 282 282 282 279 276 278 282 281 277 275 269 262 259 261 268 275 284 287 282 276 273 274 277 276 269 266 268 272 274 273 271 266 261 259 257 257 259 262 265 268 269 269 269 268 269 270 271 271 271 270 269 268 266 264 263 262 262 262 262
269 268 264 259 254 249 251 256 256 253 250 250 254 261 267 271 274 277 277 278 279 280 283 283 283 286 290 290 286 281 278 282 286 284 279 275 269 262 259 262 266 272 281 282 276 273 275 275 274 275 274 273 273 274 276 275 274 270 265 263 260 259 260 260 261 263 266 269 271 271 271 270 269 269 269 269 268 266 265 264 264 264 264 264 265
270 271 270 264 258 257 262 266 265 258 251 248 251 258 265 272 276 278 278 280 283 285 286 286 287 289 293 295 292 282 276 281 286 284 278 271 266 264 264 265 268 276 283 282 277 275 275 274 272 269 270 272 271 270 271 274 276 273 266 263 263 262 262 261 260 260 261 263 266 270 272 273 271 269 268 268 268 267 266 266 265 265 265 264 264
271 272 273 270 265 263 264 265 266 263 257 251 252 258 265 271 275 276 277 281 285 287 286 286 287 289 290 293 290 280 275 279 283 280 274 269 268 270 271 270 274 281 285 284 281 275 271 273 274 270 269 270 268 267 269 271 275 274 267 263 265 265 265 264 264 263 262 262 263 266 268 269 269 269 268 267 265 265 264 264 264 264 264 263 262
272 273 274 272 268 266 265 265 264 262 258 254 253 258 265 270 271 273 277 283 286 285 282 282 285 288 291 293 290 283 277 278 280 280 277 276 277 277 276 275 276 280 284 283 278 273 272 274 275 273 274 274 271 270 274 276 277 277 272 268 269 270 267 266 267 269 268 267 266 266 266 265 266 267 268 268 267 265 263 262 262 262 263 263 264
270 271 272 271 270 269 270 269 267 262 257 253 252 258 264 266 269 274 279 284 286 284 282 282 285 290 292 293 291 287 279 275 279 284 283 283 283 281 279 278 277 278 280 279 276 276 276 275 273 272 273 275 276 277 279 281 280 279 277 274 273 274 272 270 272 275 275 273 270 268 267 268 270 271 272 273 272 269 267 265 263 263 264 265 266
267 265 263 265 267 268 268 269 269 263 255 250 253 258 261 265 272 278 281 283 285 283 280 282 285 288 289 289 288 283 275 273 279 284 285 284 284 283 280 278 277 277 277 277 277 279 279 278 276 275 274 276 280 281 280 280 278 277 278 276 274 274 275 275 276 277 276 274 271 268 267 270 274 277 279 279 276 272 270 268 267 266 265 266 267
267 263 260 262 264 264 264 266 268 264 255 252 256 260 265 272 277 280 281 282 282 279 278 280 283 284 285 285 284 279 272 271 276 280 280 278 277 277 276 274 275 276 276 276 275 276 277 276 274 273 273 275 278 279 277 277 275 274 274 273 271 272 274 274 274 275 275 275 273 272 272 273 276 279 279 278 275 272 269 268 268 269 268 268 268
267 264 262 262 263 264 265 266 267 265 261 260 262 266 271 276 278 278 280 281 279 278 278 279 281 282 283 282 282 280 277 276 276 278 280 280 278 277 277 276 276 277 277 275 272 271 271 271 271 272 273 274 275 274 272 271 270 269 269 269 268 269 271 271 270 271 271 272 273 274 274 275 276 278 278 277 275 272 270 268 268 268 269 268 269
265 264 262 261 261 261 263 264 263 262 262 263 266 269 273 275 276 278 280 279 277 277 277 279 280 281 282 281 280 279 279 278 277 279 281 282 280 279 278 278 278 278 277 274 272 271 272 273 275 276 277 276 275 273 272 270 269 268 267 267 266 266 266 266 267 267 267 267 269 271 272 273 274 275 276 276 275 274 273 272 270 269 269 268 269
269 267 266 265 264 263 263 263 262 261 261 262 265 270 272 273 274 275 276 274 273 273 274 276 278 278 278 278 277 276 275 275 275 277 279 279 279 278 277 278 278 278 278 276 274 274 274 275 276 277 278 277 275 274 274 273 271 270 269 268 267 266 266 266 267 267 267 267 268 268 268 269 270 271 272 273 273 274 274 274 273 272 271 270 270
274 272 272 271 270 269 267 266 265 264 262 262 265 268 269 268 267 266 267 269 269 270 272 273 274 273 272 273 272 272 272 272 273 275 277 278 278 278 278 278 278 279 279 278 277 276 275 275 276 278 278 277 275 274 273 273 272 271 271 270 269 268 268 267 267 267 268 268 268 267 266 266 265 266 267 268 270 271 272 273 272 272 272 272 271
272 272 272 273 272 270 270 270 272 272 270 269 269 269 266 266 266 264 263 264 264 267 270 271 270 269 268 267 267 267 268 270 271 273 274 275 276 277 277 277 277 278 278 278 277 276 276 276 278 280 281 279 277 276 275 275 273 272 271 270 269 269 268 268 268 267 267 267 267 266 266 265 264 264 264 265 266 267 268 269 270 270 271 271 271
269 269 268 268 269 269 270 273 276 276 274 271 269 268 268 271 272 268 265 264 264 266 269 268 267 266 265 265 266 267 268 269 270 271 272 272 273 273 273 273 274 275 275 276 275 275 275 276 278 280 281 280 279 278 278 278 277 275 274 272 271 270 269 269 268 267 267 267 267 267 267 266 266 265 265 265 265 265 266 266 267 268 268 269 269
268 269 267 265 266 265 265 264 264 265 266 266 266 268 272 275 274 271 269 267 266 266 265 263 261 261 263 264 266 267 268 270 271 271 271 272 272 271 270 270 271 272 272 273 273 273 273 275 276 278 278 277 277 278 278 278 278 277 276 275 274 273 272 271 271 270 269 268 268 268 268 268 267 267 266 266 266 265 265 266 266 267 267 267 267
264 264 265 265 264 263 262 260 257 258 260 262 263 263 263 265 268 269 269 268 267 267 265 263 262 263 265 266 268 269 270 270 271 271 271 272 272 271 271 271 271 272 272 272 271 271 272 273 274 276 276 275 275 276 277 277 277 277 276 275 274 274 273 273 272 272 272 271 271 270 270 269 269 268 268 267 267 267 266 267 267 267 267 267 268
261 261 262 263 263 262 262 262 260 259 259 258 257 254 253 254 259 262 264 267 270 271 269 267 267 268 268 268 267 268 269 270 270 270 269 269 270 271 272 273 273 274 273 272 272 272 272 273 274 275 274 274 274 274 275 275 275 275 275 274 274 274 273 273 273 273 272 272 272 271 271 270 270 270 269 269 268 267 267 267 267 267 267 267 267
260 260 261 261 262 262 262 262 261 260 259 258 255 252 250 251 253 255 258 260 262 262 262 263 263 265 267 266 265 265 265 267 267 266 265 266 269 272 274 273 273 274 274 273 273 273 274 274 275 275 274 273 273 272 272 272 273 273 273 273 273 273 273 272 272 272 272 272 271 271 271 270 270 270 269 269 268 268 268 267 267 267 267 267 267
261 262 263 264 264 263 263 263 261 260 259 257 255 254 252 251 252 254 256 255 253 252 253 255 256 259 262 264 265 264 263 264 264 263 264 268 272 274 274 272 271 271 272 272 273 273 273 273 273 274 274 273 273 272 272 271 271 271 271 271 271 271 271 271 271 271 271 271 271 270 270 270 270 270 270 270 270 269 269 268 268 268 268 268 269
264 264 265 265 264 263 262 262 262 261 260 259 257 256 254 254 254 256 256 256 255 255 255 256 258 260 262 263 264 265 265 265 265 266 268 271 273 273 272 270 270 270 269 270 270 270 270 270 270 271 271 271 272 272 272 272 271 271 270 270 269 269 270 270 271 271 271 271 271 271 271 271 271 271 272 272 272 272 271 271 271 271 271 271 271
261 260 259 258 258 258 258 260 261 261 262 261 260 259 258 257 257 257 257 257 258 258 259 260 261 262 262 263 264 265 266 267 267 268 270 271 272 272 271 270 269 269 269 268 268 268 268 269 269 269 269 270 270 270 270 270 270 270 270 269 270 269 269 270 270 270 270 272 273 273 273 273 273 273 273 274 274 274 274 275 275 275 275 274 274
256 256 255 254 255 255 256 257 258 260 261 262 262 262 261 261 260 259 259 258 258 259 260 260 261 261 262 263 264 265 266 267 267 268 269 269 270 270 270 269 269 268 268 268 268 269 269 269 269 270 270 269 269 269 269 268 268 268 268 269 269 269 269 269 270 270 271 272 273 273 273 274 274 275 275 275 276 276 276 276 276 276 276 277 277
258 258 256 256 256 257 257 258 259 260 261 261 262 262 262 262 262 262 261 260 260 260 260 261 261 262 261 262 262 264 265 266 266 267 267 268 268 268 268 268 268 268 267 267 268 268 268 268 268 268 268 268 268 268 268 268 268 267 268 268 268 268 269 269 270 271 272 272 272 273 273 273 274 274 275 276 277 277 277 278 278 278 278 279 279
261 261 261 261 261 261 261 261 262 262 263 263 262 263 263 263 263 264 264 264 264 263 263 263 263 263 263 262 262 263 264 264 265 265 266 266 267 267 267 267 267 267 267 268 268 268 268 268 268 268 268 268 268 268 268 267 266 266 266 267 267 268 269 269 270 271 271 272 272 272 271 272 272 273 274 275 276 277 278 278 279 279 280 280 281
263 263 263 264 264 264 264 263 263 263 264 264 264 263 263 263 264 264 265 265 265 265 265 265 265 265 264 264 263 263 262 262 263 264 265 266 266 266 267 267 267 268 268 268 268 268 268 268 268 269 269 269 269 268 268 267 266 265 265 265 266 267 268 269 270 270 271 271 271 270 271 271 271 272 272 273 274 276 277 278 279 279 280 281 281
266 266 265 265 264 264 264 264 264 264 264 264 264 264 264 263 263 264 264 264 265 265 266 266 266 266 265 264 263 262 261 261 261 262 263 264 265 266 267 268 268 268 268 267 267 267 267 267 267 268 269 269 269 269 268 268 267 267 267 267 267 267 268 268 269 270 270 270 269 270 270 270 270 270 271 272 273 275 276 278 279 280 281 281 282
267 267 267 266 266 265 264 264 264 264 264 264 264 264 264 264 263 263 264 264 264 264 265 265 265 266 266 265 264 262 261 260 260 260 261 262 263 265 266 267 267 268 268 268 267 267 266 266 266 266 267 267 267 267 268 268 268 268 268 268 268 268 268 268 269 269 269 268 268 268 268 268 269 269 270 272 273 275 277 279 280 281 282 283 282
266 266 266 266 266 265 265 264 263 263 263 263 263 263 263 263 263 263 263 263 264 264 264 265 265 265 265 265 264 264 263 262 261 260 260 260 261 262 264 265 266 267 268 268 268 267 266 266 265 265 265 265 266 266 267 267 268 268 268 268 268 268 268 268 268 267 267 267 267 266 267 267 268 269 270 272 274 276 278 280 281 282 281 280 278
268 268 267 267 266 265 265 264 263 263 262 262 262 262 262 262 262 262 261 261 262 262 262 263 263 263 263 263 263 264 264 263 262 261 259 259 259 260 262 263 264 265 266 266 266 266 265 265 265 264 264 264 264 265 265 266 267 267 267 266 266 266 266 267 267 266 266 266 266 266 266 266 268 269 271 273 275 277 279 280 280 278 275 272 273
Height
5765 5765 5765 5765 5765 5765 5765 5765 5764 5763 5763 5765 5765 5767 5768 5769 5770 5770 5772 5773 5773 5773 5773 5773 5773 5773 5773 5773 5774 5774 5773 5773 5772 5772 5772 5773 5773 5773 5773 5773 5773 5773 5773 5773 5772 5772 5772 5772 5773 5773 5774 5775 5775 5776 5776 5777 5777 5777 5777 5777 5778 5778 5778 5778 5778 5779 5779 5780 5780 5780 5780 5780 5781 5782 5783 5784 5784 5784 5784 5784 5784 5785 5785 5785 5785
5763 5763 5763 5764 5764 5764 5764 5764 5764 5763 5764 5764 5764 5766 5767 5767 5767 5769 5771 5772 5772 5772 5772 5772 5771 5771 5771 5772 5772 5772 5772 5771 5771 5770 5771 5771 5771 5771 5771 5771 5771 5771 5771 5771 5771 5770 5770 5770 5771 5771 5772 5773 5773 5773 5774 5774 5774 5775 5775 5775 5776 5776 5776 5776 5776 5777 5777 5778 5778 5779 5779 5778 5779 5780 5781 5781 5782 5782 5782 5782 5782 5782 5782 5783 5783
5762 5761 5761 5762 5762 5762 5762 5762 5762 5763 5763 5764 5764 5764 5764 5763 5765 5767 5770 5770 5771 5770 5770 5770 5770 5770 5770 5770 5770 5770 5770 5770 5769 5769 5769 5769 5769 5769 5769 5769 5769 5769 5769 5768 5768 5768 5768 5768 5769 5769 5770 5770 5770 5771 5771 5772 5772 5773 5773 5773 5773 5774 5774 5775 5775 5775 5775 5775 5776 5777 5777 5776 5776 5777 5778 5778 5779 5780 5780 5780 5780 5780 5780 5780 5780
5760 5760 5759 5759 5760 5760 5760 5759 5760 5761 5761 5762 5762 5761 5760 5761 5763 5766 5767 5768 5768 5768 5768 5768 5768 5768 5769 5769 5769 5769 5768 5768 5768 5767 5768 5768 5768 5768 5768 5767 5767 5767 5767 5766 5766 5766 5767 5767 5767 5767 5767 5768 5768 5769 5769 5769 5770 5770 5771 5771 5771 5771 5772 5772 5772 5772 5772 5772 5773 5774 5774 5774 5774 5774 5775 5775 5776 5777 5777 5778 5778 5778 5778 5778 5777
5758 5758 5758 5758 5758 5758 5758 5758 5758 5758 5758 5758 5758 5758 5758 5759 5761 5764 5765 5766 5765 5765 5765 5766 5766 5767 5767 5767 5767 5767 5767 5766 5766 5766 5766 5766 5766 5766 5766 5766 5766 5765 5765 5765 5765 5765 5765 5765 5766 5766 5765 5765 5766 5766 5767 5767 5767 5768 5768 5768 5768 5768 5769 5769 5770 5770 5770 5770 5770 5771 5771 5771 5772 5772 5772 5773 5773 5774 5774 5776 5776 5776 5776 5776 5775
5756 5756 5756 5756 5757 5757 5757 5756 5756 5756 5756 5756 5756 5756 5757 5758 5761 5763 5763 5763 5763 5763 5763 5764 5764 5765 5765 5766 5766 5765 5765 5765 5765 5765 5765 5765 5765 5765 5765 5764 5764 5764 5764 5763 5763 5763 5763 5764 5764 5764 5764 5764 5764 5764 5764 5764 5765 5765 5765 5765 5766 5766 5766 5766 5767 5767 5768 5768 5768 5768 5769 5769 5769 5769 5770 5770 5771 5771 5772 5773 5773 5773 5773 5773 5773
5754 5755 5755 5755 5755 5755 5755 5755 5755 5754 5754 5754 5754 5755 5756 5757 5759 5761 5761 5761 5761 5761 5761 5762 5762 5762 5763 5763 5764 5764 5764 5763 5763 5763 5764 5764 5763 5763 5763 5762 5762 5762 5762 5762 5762 5762 5762 5762 5762 5762 5762 5762 5762 5762 5762 5762 5763 5763 5763 5763 5763 5763 5763 5764 5764 5765 5765 5765 5766 5766 5766 5767 5767 5767 5767 5767 5768 5769 5769 5770 5770 5770 5771 5771 5771
5753 5754 5755 5755 5755 5754 5754 5753 5753 5753 5752 5752 5752 5753 5754 5756 5758 5759 5759 5759 5758 5759 5759 5759 5759 5760 5760 5761 5762 5762 5763 5762 5762 5762 5762 5762 5762 5762 5761 5760 5760 5760 5759 5759 5759 5760 5760 5760 5760 5760 5760 5760 5760 5760 5760 5760 5760 5761 5761 5761 5761 5761 5761 5761 5762 5762 5762 5763 5763 5764 5764 5764 5764 5764 5764 5765 5765 5766 5767 5767 5767 5768 5768 5768 5769
5752 5753 5753 5753 5753 5753 5752 5752 5751 5751 5750 5750 5750 5751 5752 5754 5755 5756 5756 5756 5756 5757 5757 5757 5757 5758 5759 5759 5760 5761 5761 5762 5761 5761 5761 5761 5761 5760 5759 5759 5758 5758 5757 5757 5757 5757 5758 5758 5758 5758 5758 5758 5758 5758 5758 5758 5758 5759 5759 5759 5759 5759 5759 5759 5760 5760 5760 5761 5761 5761 5762 5762 5762 5762 5762 5762 5763 5763 5764 5765 5765 5765 5766 5766 5766
5750 5751 5751 5752 5752 5751 5751 5750 5749 5747 5746 5746 5747 5748 5749 5751 5752 5753 5753 5754 5754 5754 5754 5755 5755 5755 5756 5757 5757 5759 5760 5760 5760 5760 5759 5759 5758 5758 5758 5757 5756 5756 5756 5755 5755 5755 5756 5756 5756 5756 5756 5756 5756 5756 5757 5757 5757 5757 5757 5757 5757 5757 5758 5758 5758 5758 5758 5759 5759 5759 5760 5760 5760 5760 5760 5760 5761 5761 5761 5762 5763 5763 5763 5763 5764
5748 5749 5749 5749 5750 5749 5749 5748 5747 5746 5745 5744 5743 5745 5747 5748 5750 5750 5751 5751 5751 5751 5752 5752 5753 5753 5753 5754 5755 5756 5757 5758 5758 5758 5757 5756 5756 5755 5755 5755 5755 5754 5754 5754 5754 5754 5754 5754 5755 5755 5755 5755 5755 5755 5755 5755 5756 5756 5756 5756 5756 5756 5756 5756 5756 5756 5756 5757 5757 5757 5757 5758 5758 5758 5758 5758 5758 5759 5759 5759 5759 5760 5760 5761 5761
5745 5745 5746 5747 5747 5747 5747 5747 5746 5746 5747 5745 5742 5743 5746 5747 5748 5749 5749 5749 5748 5749 5749 5750 5751 5751 5751 5752 5753 5754 5754 5755 5756 5756 5755 5754 5753 5752 5752 5752 5752 5752 5752 5752 5752 5752 5752 5753 5753 5753 5753 5753 5753 5754 5754 5754 5754 5755 5755 5754 5754 5754 5754 5754 5754 5754 5754 5754 5754 5755 5755 5755 5756 5756 5756 5756 5756 5756 5756 5756 5756 5757 5757 5757 5758
5742 5742 5742 5744 5744 5745 5745 5745 5745 5744 5743 5742 5740 5741 5744 5745 5747 5747 5746 5746 5746 5747 5748 5749 5749 5749 5749 5750 5750 5750 5751 5752 5753 5753 5753 5752 5750 5750 5749 5750 5750 5750 5750 5750 5750 5750 5751 5751 5751 5751 5751 5751 5752 5752 5752 5753 5753 5753 5753 5753 5753 5753 5753 5752 5752 5752 5752 5752 5752 5752 5752 5753 5753 5753 5753 5753 5753 5754 5754 5754 5754 5754 5754 5755 5755
5739 5738 5739 5740 5740 5741 5742 5742 5743 5741 5738 5737 5738 5740 5741 5743 5743 5742 5743 5744 5745 5746 5746 5746 5746 5746 5746 5746 5746 5747 5747 5748 5749 5750 5750 5749 5748 5747 5747 5747 5747 5747 5747 5747 5748 5748 5749 5749 5749 5749 5749 5750 5750 5750 5751 5751 5751 5752 5752 5752 5752 5751 5751 5751 5750 5750 5750 5750 5750 5750 5750 5750 5750 5751 5751 5751 5751 5751 5751 5751 5752 5752 5752 5752 5752
5736 5736 5736 5736 5735 5737 5739 5740 5740 5739 5737 5736 5737 5739 5740 5741 5740 5739 5741 5743 5743 5743 5742 5742 5742 5742 5743 5743 5744 5744 5745 5745 5746 5747 5748 5747 5746 5745 5744 5744 5744 5744 5745 5745 5745 5746 5747 5747 5747 5747 5747 5748 5748 5748 5749 5749 5749 5750 5750 5750 5750 5750 5749 5749 5748 5748 5748 5748 5748 5748 5748 5748 5748 5748 5748 5749 5749 5749 5749 5749 5749 5749 5749 5749 5749
5733 5733 5733 5733 5732 5732 5735 5737 5735 5735 5736 5735 5735 5737 5738 5739 5739 5738 5740 5740 5739 5738 5737 5738 5739 5740 5741 5741 5742 5742 5742 5743 5743 5744 5745 5745 5744 5743 5742 5741 5742 5742 5742 5742 5743 5744 5744 5745 5745 5745 5745 5746 5746 5746 5747 5747 5747 5748 5748 5748 5748 5748 5747 5747 5747 5746 5746 5746 5746 5746 5746 5746 5746 5746 5746 5746 5746 5746 5746 5746 5746 5746 5746 5746 5747
5729 5728 5729 5730 5729 5730 5732 5733 5731 5731 5734 5734 5733 5734 5736 5737 5737 5738 5739 5737 5735 5734 5735 5736 5738 5739 5739 5739 5739 5739 5740 5740 5740 5740 5742 5742 5741 5740 5739 5739 5739 5739 5740 5741 5741 5742 5742 5743 5743 5743 5743 5743 5744 5744 5744 5745 5745 5745 5745 5745 5746 5746 5746 5746 5745 5745 5744 5744 5744 5743 5743 5743 5743 5743 5743 5743 5744 5744 5744 5744 5744 5744 5744 5744 5744
5725 5725 5726 5726 5726 5727 5729 5730 5729 5729 5731 5731 5730 5731 5733 5735 5735 5737 5738 5735 5731 5733 5735 5735 5735 5736 5736 5736 5736 5736 5736 5737 5737 5737 5739 5739 5737 5737 5736 5736 5736 5737 5738 5739 5740 5741 5741 5741 5741 5741 5741 5741 5742 5742 5742 5743 5743 5743 5743 5743 5743 5744 5744 5744 5744 5743 5743 5743 5742 5742 5742 5742 5742 5741 5741 5741 5742 5742 5742 5742 5742 5742 5742 5742 5742
5722 5723 5723 5722 5723 5725 5726 5726 5726 5726 5727 5727 5727 5728 5730 5732 5733 5734 5734 5731 5729 5731 5733 5733 5733 5733 5734 5734 5733 5733 5733 5734 5734 5735 5736 5736 5734 5733 5733 5733 5733 5734 5736 5737 5738 5739 5739 5739 5738 5738 5738 5739 5739 5740 5740 5741 5741 5741 5741 5741 5741 5741 5742 5742 5742 5742 5742 5741 5741 5741 5741 5741 5740 5740 5740 5740 5740 5740 5740 5740 5740 5740 5741 5741 5741
5719 5719 5719 5719 5720 5721 5722 5723 5723 5723 5724 5724 5725 5726 5727 5729 5730 5731 5731 5729 5729 5730 5731 5731 5731 5731 5731 5731 5731 5731 5731 5731 5732 5733 5733 5733 5732 5731 5730 5730 5731 5733 5734 5735 5736 5736 5736 5736 5736 5736 5736 5736 5737 5737 5738 5738 5738 5739 5739 5739 5739 5739 5740 5740 5740 5740 5740 5740 5740 5740 5740 5739 5739 5739 5739 5739 5739 5739 5739 5739 5739 5739 5739 5739 5739
5716 5716 5715 5716 5717 5719 5720 5720 5721 5721 5721 5722 5722 5723 5725 5726 5727 5728 5729 5729 5729 5729 5729 5729 5729 5728 5728 5728 5728 5728 5728 5728 5729 5730 5730 5730 5729 5728 5728 5728 5729 5731 5732 5733 5733 5733 5733 5733 5733 5734 5734 5734 5734 5735 5735 5736 5736 5737 5737 5737 5737 5737 5737 5738 5738 5738 5738 5738 5738 5738 5738 5738 5738 5738 5738 5738 5737 5737 5737 5737 5737 5738 5738 5738 5738
5714 5713 5713 5714 5715 5716 5717 5718 5718 5718 5719 5719 5719 5721 5723 5724 5724 5725 5726 5727 5727 5727 5727 5727 5726 5726 5725 5725 5725 5725 5725 5726 5727 5728 5728 5728 5727 5727 5727 5727 5727 5728 5729 5730 5730 5730 5730 5730 5730 5731 5731 5732 5732 5733 5733 5734 5734 5735 5735 5734 5734 5735 5735 5735 5736 5736 5736 5737 5737 5737 5737 5737 5736 5736 5736 5736 5736 5736 5736 5736 5735 5736 5736 5736 5736
5711 5711 5712 5712 5712 5713 5714 5715 5716 5716 5716 5717 5717 5718 5720 5720 5721 5722 5723 5723 5724 5723 5723 5724 5724 5724 5724 5724 5724 5723 5723 5724 5725 5725 5725 5725 5725 5725 5725 5725 5726 5726 5727 5727 5726 5727 5727 5727 5727 5727 5727 5728 5729 5730 5730 5731 5732 5732 5732 5732 5732 5732 5733 5733 5733 5734 5734 5734 5734 5734 5734 5735 5734 5734 5734 5734 5734 5734 5734 5734 5734 5734 5734 5734 5734
5708 5709 5709 5710 5710 5711 5711 5712 5713 5714 5715 5715 5715 5716 5717 5718 5718 5718 5719 5719 5719 5719 5720 5721 5721 5721 5722 5722 5722 5722 5722 5722 5722 5723 5723 5723 5723 5723 5723 5724 5724 5725 5725 5725 5724 5724 5724 5725 5725 5725 5724 5725 5725 5726 5727 5728 5728 5729 5729 5729 5730 5730 5730 5730 5731 5731 5731 5731 5732 5732 5732 5732 5732 5732 5732 5732 5732 5732 5732 5732 5732 5732 5732 5732 5732
5705 5706 5707 5708 5708 5709 5709 5710 5711 5712 5712 5713 5712 5713 5714 5715 5715 5715 5715 5716 5716 5716 5716 5717 5718 5718 5718 5719 5719 5719 5719 5719 5720 5720 5719 5720 5720 5721 5721 5721 5722 5722 5722 5722 5722 5722 5722 5722 5722 5722 5722 5722 5722 5723 5723 5724 5725 5726 5726 5726 5727 5727 5728 5728 5728 5728 5728 5728 5728 5729 5729 5729 5729 5729 5729 5729 5729 5730 5730 5730 5730 5730 5730 5730 5730
5702 5702 5704 5705 5706 5707 5707 5707 5708 5708 5709 5710 5710 5710 5710 5711 5712 5712 5712 5712 5712 5712 5713 5713 5714 5714 5714 5715 5715 5716 5716 5716 5717 5716 5716 5717 5717 5718 5718 5718 5719 5719 5719 5719 5719 5719 5719 5719 5720 5720 5720 5720 5720 5720 5720 5721 5721 5722 5723 5723 5724 5724 5724 5725 5725 5725 5725 5725 5725 5725 5726 5726 5726 5727 5726 5726 5726 5727 5727 5727 5727 5727 5727 5727 5727
5699 5699 5700 5701 5702 5703 5704 5704 5704 5704 5705 5705 5706 5706 5707 5707 5708 5709 5709 5709 5709 5709 5709 5710 5710 5711 5711 5711 5711 5712 5712 5712 5712 5712 5713 5713 5714 5715 5715 5715 5715 5715 5715 5715 5715 5716 5716 5716 5717 5717 5717 5717 5717 5717 5717 5717 5718 5718 5719 5720 5721 5721 5721 5721 5722 5722 5722 5722 5722 5722 5722 5722 5723 5723 5723 5723 5723 5723 5724 5724 5724 5724 5724 5723 5723
5696 5696 5697 5698 5698 5699 5700 5700 5699 5700 5700 5701 5702 5702 5703 5703 5704 5704 5705 5705 5705 5705 5705 5706 5706 5707 5707 5707 5707 5708 5708 5708 5708 5709 5709 5709 5710 5711 5711 5711 5711 5711 5711 5711 5711 5712 5712 5713 5713 5714 5714 5714 5714 5713 5714 5714 5715 5715 5716 5716 5717 5718 5718 5718 5718 5718 5718 5718 5718 5718 5719 5719 5719 5719 5720 5720 5720 5720 5720 5720 5720 5720 5720 5720 5719
5694 5694 5694 5694 5694 5695 5696 5696 5696 5695 5696 5696 5697 5698 5698 5699 5699 5700 5700 5701 5701 5701 5701 5702 5702 5703 5703 5703 5703 5704 5704 5704 5705 5705 5705 5705 5706 5707 5707 5707 5706 5706 5707 5707 5707 5707 5707 5708 5709 5710 5711 5710 5709 5709 5710 5711 5712 5712 5712 5713 5713 5713 5714 5714 5714 5714 5714 5715 5715 5715 5715 5715 5715 5715 5716 5717 5717 5717 5717 5717 5717 5717 5717 5717 5716
5690 5690 5690 5691 5691 5691 5692 5692 5692 5691 5691 5692 5693 5694 5694 5694 5695 5695 5696 5696 5696 5697 5697 5697 5697 5698 5699 5699 5699 5700 5700 5700 5701 5701 5702 5703 5703 5703 5703 5703 5703 5703 5703 5703 5703 5702 5703 5704 5705 5706 5706 5705 5704 5705 5706 5707 5708 5708 5708 5709 5709 5709 5709 5709 5709 5709 5709 5710 5710 5710 5710 5710 5710 5711 5711 5712 5712 5713 5713 5713 5713 5713 5713 5713 5712
5684 5685 5686 5686 5686 5687 5687 5687 5688 5688 5688 5688 5689 5689 5689 5689 5689 5690 5690 5690 5691 5691 5691 5691 5691 5692 5693 5693 5694 5694 5694 5694 5695 5696 5697 5698 5698 5698 5698 5698 5698 5699 5699 5699 5699 5698 5699 5699 5699 5700 5700 5699 5700 5701 5702 5703 5703 5703 5704 5704 5704 5704 5704 5704 5704 5704 5704 5704 5704 5705 5705 5705 5705 5705 5705 5706 5706 5707 5707 5707 5708 5708 5708 5708 5707
5679 5680 5680 5680 5681 5682 5682 5682 5683 5683 5683 5684 5684 5684 5685 5684 5684 5684 5684 5685 5685 5685 5685 5685 5685 5685 5686 5687 5688 5688 5688 5689 5689 5690 5691 5692 5692 5692 5693 5693 5693 5693 5694 5694 5694 5693 5693 5693 5692 5693 5693 5694 5694 5695 5696 5697 5697 5697 5698 5698 5698 5698 5698 5698 5699 5699 5699 5700 5700 5700 5700 5700 5700 5699 5699 5699 5699 5699 5700 5700 5701 5702 5702 5702 5702
5672 5673 5674 5674 5675 5676 5677 5677 5678 5678 5679 5679 5679 5679 5679 5679 5679 5679 5679 5679 5679 5679 5679 5679 5680 5680 5680 5681 5682 5683 5683 5684 5685 5685 5686 5687 5687 5687 5688 5688 5687 5688 5687 5687 5687 5687 5687 5687 5687 5687 5688 5688 5688 5689 5690 5691 5691 5692 5692 5692 5692 5692 5693 5694 5694 5694 5694 5694 5695 5695 5695 5695 5695 5694 5694 5693 5693 5692 5692 5693 5693 5694 5694 5694 5695
5665 5666 5667 5668 5669 5670 5670 5670 5671 5672 5673 5674 5674 5674 5674 5674 5674 5674 5674 5674 5674 5674 5674 5675 5675 5675 5675 5676 5676 5677 5678 5679 5679 5680 5681 5681 5682 5682 5682 5682 5682 5682 5682 5681 5681 5681 5681 5682 5681 5682 5682 5683 5683 5683 5684 5685 5685 5686 5686 5687 5687 5687 5687 5688 5688 5688 5689 5689 5689 5689 5689 5689 5689 5688 5688 5687 5687 5686 5686 5686 5686 5686 5687 5687 5687
5660 5661 5661 5661 5662 5663 5663 5663 5664 5664 5665 5666 5666 5667 5667 5668 5668 5668 5668 5668 5668 5668 5668 5669 5669 5669 5670 5670 5671 5671 5672 5673 5673 5674 5675 5676 5676 5676 5676 5676 5676 5676 5676 5675 5675 5675 5675 5676 5676 5676 5676 5676 5677 5677 5678 5678 5679 5680 5680 5681 5681 5681 5681 5681 5682 5682 5682 5682 5682 5682 5682 5682 5682 5682 5682 5681 5681 5681 5680 5680 5680 5680 5680 5680 5680
5654 5656 5657 5656 5657 5658 5658 5658 5658 5657 5657 5658 5657 5658 5659 5661 5661 5661 5661 5662 5662 5662 5662 5662 5662 5663 5663 5663 5664 5664 5665 5666 5667 5668 5669 5670 5670 5671 5671 5671 5670 5670 5670 5670 5670 5669 5669 5669 5670 5670 5670 5670 5670 5670 5671 5671 5672 5673 5673 5674 5675 5675 5675 5675 5675 5675 5675 5676 5676 5676 5675 5675 5675 5675 5675 5675 5675 5674 5674 5673 5673 5673 5673 5673 5672
5647 5649 5650 5651 5652 5652 5653 5653 5653 5652 5652 5651 5651 5652 5653 5654 5654 5654 5654 5655 5655 5655 5655 5655 5656 5656 5656 5657 5657 5658 5658 5659 5659 5660 5661 5663 5663 5664 5664 5664 5664 5664 5664 5664 5664 5664 5664 5664 5664 5664 5664 5664 5664 5664 5664 5665 5665 5666 5666 5667 5667 5668 5668 5668 5668 5668 5668 5669 5669 5669 5669 5668 5668 5668 5668 5668 5668 5667 5667 5667 5666 5666 5666 5665 5665
5641 5642 5642 5643 5645 5645 5645 5646 5647 5646 5646 5645 5645 5647 5647 5647 5647 5647 5647 5648 5649 5649 5649 5649 5649 5650 5650 5650 5651 5651 5651 5651 5652 5653 5654 5655 5656 5656 5657 5657 5657 5658 5658 5658 5657 5657 5657 5657 5657 5658 5658 5658 5658 5658 5658 5659 5659 5659 5660 5660 5661 5661 5661 5661 5661 5661 5661 5661 5662 5662 5662 5661 5661 5661 5661 5661 5661 5660 5660 5659 5659 5659 5658 5658 5658
5634 5635 5635 5636 5637 5637 5637 5638 5639 5639 5639 5639 5639 5640 5641 5641 5641 5641 5641 5643 5643 5643 5643 5643 5643 5643 5643 5643 5644 5644 5645 5645 5645 5646 5647 5648 5648 5649 5649 5650 5650 5650 5650 5650 5650 5650 5650 5650 5650 5651 5651 5652 5652 5652 5653 5653 5653 5653 5653 5654 5654 5654 5654 5654 5654 5654 5654 5654 5654 5654 5654 5654 5654 5654 5654 5654 5653 5653 5653 5652 5652 5652 5651 5651 5650
5628 5628 5629 5629 5629 5629 5629 5629 5630 5630 5631 5632 5633 5633 5634 5634 5634 5634 5636 5637 5637 5636 5636 5636 5636 5636 5635 5635 5636 5638 5638 5639 5639 5639 5640 5641 5642 5643 5643 5643 5643 5643 5642 5642 5642 5643 5642 5642 5643 5643 5644 5645 5645 5646 5647 5647 5647 5647 5647 5647 5648 5648 5648 5648 5647 5647 5647 5647 5647 5647 5647 5647 5647 5646 5646 5646 5646 5646 5646 5645 5645 5644 5643 5643 5643
5620 5621 5621 5621 5621 5621 5621 5620 5621 5621 5622 5623 5625 5626 5627 5627 5627 5627 5629 5630 5630 5630 5630 5630 5629 5629 5628 5628 5629 5630 5632 5632 5632 5633 5633 5634 5635 5635 5636 5636 5636 5636 5636 5636 5636 5635 5635 5635 5636 5636 5636 5637 5638 5639 5639 5640 5641 5641 5641 5641 5642 5641 5641 5641 5641 5641 5640 5640 5640 5640 5640 5640 5640 5640 5640 5639 5639 5639 5638 5638 5637 5637 5636 5636 5635
5612 5613 5613 5613 5613 5612 5612 5611 5611 5612 5613 5614 5616 5617 5618 5618 5619 5620 5621 5622 5622 5622 5623 5623 5623 5623 5622 5622 5623 5623 5624 5625 5625 5625 5626 5626 5627 5627 5628 5629 5629 5630 5630 5630 5630 5630 5629 5629 5629 5630 5630 5631 5631 5632 5632 5633 5634 5634 5634 5635 5635 5635 5635 5635 5635 5635 5634 5634 5633 5634 5634 5634 5634 5634 5633 5633 5632 5632 5631 5630 5630 5629 5629 5628 5627
5603 5604 5605 5605 5605 5604 5604 5604 5604 5604 5604 5605 5607 5608 5609 5609 5611 5611 5612 5612 5613 5614 5614 5615 5615 5616 5616 5616 5616 5616 5617 5617 5617 5617 5617 5618 5618 5619 5620 5621 5622 5622 5623 5623 5623 5623 5623 5623 5623 5624 5624 5625 5625 5626 5626 5626 5627 5627 5627 5627 5628 5629 5629 5629 5629 5629 5628 5628 5628 5628 5628 5628 5627 5627 5627 5626 5626 5625 5624 5624 5623 5622 5621 5621 5620
5596 5596 5597 5597 5598 5598 5598 5598 5598 5598 5598 5598 5598 5599 5600 5601 5602 5602 5602 5603 5604 5604 5605 5606 5607 5608 5609 5609 5609 5609 5609 5609 5609 5609 5609 5610 5610 5611 5612 5613 5614 5615 5615 5616 5616 5617 5617 5617 5617 5617 5617 5618 5618 5619 5619 5620 5620 5621 5621 5621 5621 5622 5622 5622 5622 5623 5623 5623 5622 5622 5622 5622 5621 5621 5621 5620 5620 5619 5618 5618 5617 5616 5615 5614 5613
5589 5589 5589 5590 5590 5590 5590 5591 5590 5590 5590 5591 5591 5591 5592 5592 5592 5592 5592 5593 5594 5595 5596 5598 5599 5600 5601 5602 5602 5602 5602 5602 5601 5601 5601 5602 5603 5604 5605 5605 5606 5607 5608 5609 5609 5610 5610 5610 5610 5610 5610 5611 5612 5612 5613 5613 5614 5614 5614 5614 5615 5615 5616 5616 5616 5617 5617 5617 5617 5616 5616 5616 5616 5615 5615 5615 5614 5614 5613 5612 5611 5610 5609 5607 5606
5580 5580 5580 5580 5581 5581 5581 5582 5582 5581 5581 5582 5583 5583 5583 5584 5584 5583 5583 5584 5585 5586 5587 5588 5590 5591 5593 5594 5594 5594 5594 5594 5594 5594 5594 5594 5595 5596 5597 5598 5599 5600 5601 5602 5602 5602 5603 5603 5603 5603 5603 5604 5605 5605 5606 5607 5608 5608 5608 5608 5608 5609 5610 5610 5610 5611 5611 5611 5611 5611 5610 5610 5610 5610 5610 5609 5609 5608 5607 5606 5605 5604 5603 5602 5601
5571 5571 5571 5571 5571 5572 5572 5573 5573 5573 5572 5572 5573 5574 5575 5576 5576 5576 5575 5576 5576 5577 5578 5579 5580 5582 5583 5585 5586 5586 5586 5586 5586 5586 5586 5587 5587 5589 5590 5591 5592 5593 5594 5594 5595 5595 5595 5595 5595 5595 5596 5597 5598 5599 5599 5600 5601 5601 5602 5602 5603 5603 5604 5604 5604 5605 5605 5605 5605 5605 5605 5605 5605 5605 5604 5604 5603 5603 5602 5601 5600 5599 5598 5597 5596
5561 5561 5561 5562 5562 5562 5563 5563 5564 5564 5563 5563 5564 5565 5566 5567 5568 5567 5567 5568 5568 5569 5569 5570 5571 5572 5573 5575 5576 5577 5578 5579 5579 5579 5579 5580 5580 5581 5583 5584 5585 5586 5586 5587 5588 5588 5589 5589 5589 5589 5590 5590 5591 5592 5592 5593 5594 5595 5595 5596 5597 5597 5598 5598 5598 5599 5599 5599 5599 5599 5599 5599 5599 5599 5599 5598 5598 5597 5597 5596 5595 5594 5593 5592 5591
5552 5551 5551 5552 5552 5553 5553 5554 5554 5554 5553 5554 5555 5555 5556 5557 5558 5559 5559 5559 5560 5560 5561 5562 5562 5563 5564 5565 5566 5568 5569 5570 5571 5572 5572 5573 5573 5574 5576 5577 5577 5578 5579 5580 5580 5581 5582 5582 5582 5583 5583 5584 5584 5585 5586 5587 5587 5588 5589 5590 5591 5591 5591 5592 5592 5592 5593 5593 5594 5594 5594 5594 5594 5594 5594 5593 5593 5592 5592 5591 5590 5589 5588 5587 5585
5542 5542 5542 5542 5542 5543 5543 5544 5544 5544 5544 5544 5546 5546 5547 5547 5549 5549 5550 5551 5551 5552 5552 5553 5553 5554 5555 5556 5557 5558 5560 5562 5563 5565 5565 5566 5567 5567 5568 5569 5570 5571 5572 5573 5574 5574 5575 5575 5576 5577 5577 5578 5578 5579 5580 5581 5581 5582 5583 5584 5584 5585 5585 5586 5586 5587 5587 5588 5588 5589 5589 5589 5589 5589 5588 5588 5588 5587 5587 5586 5585 5584 5583 5582 5581
5533 5532 5532 5532 5532 5532 5533 5533 5533 5533 5534 5535 5536 5537 5537 5538 5539 5540 5541 5542 5543 5543 5543 5544 5545 5545 5546 5547 5549 5550 5552 5553 5555 5557 5558 5559 5560 5561 5562 5563 5563 5564 5565 5566 5567 5567 5568 5569 5570 5570 5571 5572 5572 5573 5574 5575 5575 5576 5577 5578 5578 5579 5579 5580 5580 5581 5582 5583 5583 5583 5583 5583 5584 5584 5584 5583 5583 5583 5582 5581 5580 5580 5579 5579 5578